GW1492 Weather Reports


time (UTC)temp
C
wind
direction
speed
KPH
gust
KPH
rain 1hr
cm
rain 24hr
cm
rain mn
cm
humidity
%
barometer
mb
20260508165120 18 200 4.8 6.4 0.00 0.00 0.00 39 1018.6
20260508164533 18 8 1.6 3.2 0.00 0.00 0.00 40 1018.9
20260508163331 17 221 1.6 3.2 0.00 0.00 0.00 41 1018.9
20260508162723 17 115 3.2 4.8 0.00 0.00 0.00 35 1018.9
20260508162130 17 227 0.0 1.6 0.00 0.00 0.00 43 1018.9
20260508161515 17 247 0.0 1.6 0.00 0.00 0.00 40 1018.9
20260508160931 16 308 3.2 3.2 0.00 0.00 0.00 44 1018.9
20260508160338 16 186 3.2 3.2 0.00 0.00 0.00 42 1018.9
20260508155110 16 203 0.0 1.6 0.00 0.00 0.00 43 1019.3
20260508154521 17 334 1.6 3.2 0.00 0.00 0.00 45 1018.9
20260508153937 16 222 1.6 3.2 0.00 0.00 0.00 53 1019.3
20260508153342 15 243 3.2 4.8 0.00 0.00 0.00 44 1019.3
20260508152746 16 215 1.6 3.2 0.00 0.00 0.00 52 1019.3
20260508151536 15 288 3.2 3.2 0.00 0.00 0.00 56 1019.3
20260508150945 16 247 1.6 1.6 0.00 0.00 0.00 56 1019.3
20260508145746 15 297 1.6 3.2 0.00 0.00 0.00 57 1019.3
20260508145148 14 276 1.6 3.2 0.00 0.00 0.00 62 1019.3
20260508143942 13 269 1.6 3.2 0.00 0.00 0.00 60 1019.3
20260508142727 12 291 1.6 3.2 0.00 0.00 0.00 72 1019.3
20260508142148 11 308 3.2 3.2 0.00 0.00 0.00 70 1018.9
20260508141518 11 225 6.4 8.0 0.00 0.00 0.00 54 1019.3
20260508140935 10 325 1.6 3.2 0.00 0.00 0.00 77 1018.9
20260508135748 9 313 3.2 3.2 0.00 0.00 0.00 83 1018.9
20260508135145 8 325 3.2 3.2 0.00 0.00 0.00 84 1019.3
20260508134522 7 323 3.2 3.2 0.00 0.00 0.00 86 1019.3
20260508133915 7 317 3.2 3.2 0.00 0.00 0.00 87 1019.3
20260508133312 7 314 1.6 3.2 0.00 0.00 0.00 88 1019.3
20260508132726 6 311 1.6 3.2 0.00 0.00 0.00 89 1019.3
20260508132122 6 309 0.0 0.0 0.00 0.00 0.00 91 1019.3
20260508130308 5 271 0.0 0.0 0.00 0.00 0.00 94 1018.9
20260508125126 5 228 0.0 0.0 0.00 0.00 0.00 94 1018.9
20260508123936 4 311 0.0 0.0 0.00 0.00 0.00 94 1018.9
20260508123350 3 323 0.0 0.0 0.00 0.00 0.00 94 1018.9
20260508122731 4 165 0.0 0.0 0.00 0.00 0.00 95 1018.9
20260508122120 4 197 0.0 0.0 0.00 0.00 0.00 95 1018.9
20260508121537 4 321 0.0 0.0 0.00 0.00 0.00 95 1018.9
20260508120920 3 347 0.0 0.0 0.00 0.00 0.00 95 1018.6
20260508115710 2 311 0.0 0.0 0.00 0.00 0.00 95 1018.9
20260508115148 2 281 0.0 0.0 0.00 0.00 0.00 95 1018.9
20260508114519 2 211 0.0 0.0 0.00 0.00 0.00 95 1018.6
20260508113930 2 200 0.0 0.0 0.00 0.00 0.00 95 1018.6
20260508113316 2 255 0.0 0.0 0.00 0.00 0.00 95 1018.6
20260508112719 1 213 0.0 0.0 0.00 0.00 0.00 94 1018.6
20260508112143 1 292 0.0 0.0 0.00 0.00 0.00 94 1018.6
20260508111542 2 230 0.0 0.0 0.00 0.00 0.00 94 1018.2
20260508110922 2 230 0.0 0.0 0.00 0.00 0.00 94 1018.2
20260508110326 1 223 0.0 0.0 0.00 0.00 0.00 94 1018.2
20260508105142 2 238 0.0 0.0 0.00 0.00 0.00 94 1018.2
20260508103936 2 226 0.0 0.0 0.00 0.00 0.00 94 1017.9
20260508103338 2 221 0.0 0.0 0.00 0.00 0.00 95 1017.9
20260508102715 2 298 0.0 0.0 0.00 0.00 0.00 94 1017.9
20260508102115 2 136 0.0 0.0 0.00 0.00 0.00 94 1017.9
20260508101512 2 226 0.0 0.0 0.00 0.00 0.00 94 1017.9
20260508100938 2 221 0.0 0.0 0.00 0.00 0.00 94 1017.9
20260508100331 2 214 0.0 0.0 0.00 0.00 0.00 94 1017.9
20260508095748 2 214 0.0 0.0 0.00 0.00 0.00 94 1017.9
20260508095130 2 139 0.0 0.0 0.00 0.00 0.00 94 1017.9
20260508094522 2 112 0.0 0.0 0.00 0.00 0.00 94 1017.9
20260508093943 2 346 1.6 1.6 0.00 0.00 0.00 94 1017.9
20260508092722 2 226 0.0 0.0 0.00 0.00 0.00 94 1017.9
20260508092142 2 237 0.0 0.0 0.00 0.00 0.00 94 1017.9
20260508091528 2 214 0.0 0.0 0.00 0.00 0.00 94 1017.9
20260508090932 2 144 0.0 0.0 0.00 0.00 0.00 94 1017.6
20260508085139 3 238 0.0 0.0 0.00 0.00 0.00 94 1017.6
20260508084547 3 82 0.0 0.0 0.00 0.00 0.00 94 1017.6
20260508083912 2 327 0.0 0.0 0.00 0.00 0.00 94 1017.6
20260508083313 3 215 0.0 0.0 0.00 0.00 0.00 94 1017.6
20260508082735 3 178 0.0 0.0 0.00 0.00 0.00 94 1017.6
20260508082150 3 99 0.0 1.6 0.00 0.00 0.00 94 1017.6
20260508081537 2 209 0.0 0.0 0.00 0.00 0.00 93 1017.6
20260508080328 3 106 0.0 0.0 0.00 0.00 0.00 94 1017.6
20260508075731 3 48 0.0 0.0 0.00 0.00 0.00 94 1017.6
20260508075120 2 280 0.0 0.0 0.00 0.00 0.00 93 1017.6
20260508074529 3 219 0.0 0.0 0.00 0.00 0.00 93 1017.6
20260508073327 2 222 0.0 0.0 0.00 0.00 0.00 93 1017.2
20260508072732 3 222 0.0 0.0 0.00 0.00 0.00 93 1017.6
20260508072115 3 194 0.0 0.0 0.00 0.00 0.00 93 1017.6
20260508071537 3 132 0.0 0.0 0.00 0.00 0.00 93 1017.6
20260508070950 3 337 0.0 0.0 0.00 0.00 0.00 93 1017.6
20260508070338 3 258 0.0 0.0 0.00 0.00 0.00 93 1017.2
20260508065738 3 213 0.0 0.0 0.00 0.00 0.00 92 1017.2
20260508065133 3 213 0.0 0.0 0.00 0.00 0.00 92 1017.2
20260508064520 3 180 0.0 0.0 0.00 0.00 0.00 92 1017.2
20260508063925 4 86 0.0 0.0 0.00 0.00 0.00 93 1017.2
20260508063318 3 29 0.0 0.0 0.00 0.00 0.00 93 1017.2
20260508062742 3 9 0.0 0.0 0.00 0.00 0.00 93 1017.2
20260508062146 3 249 0.0 0.0 0.00 0.00 0.00 93 1017.6
20260508061530 3 250 0.0 0.0 0.00 0.00 0.00 92 1017.2
20260508060909 3 185 0.0 0.0 0.00 0.00 0.00 92 1017.6
20260508060341 4 83 0.0 0.0 0.00 0.00 0.00 92 1017.6
20260508055751 4 16 0.0 0.0 0.00 0.00 0.00 92 1017.6
20260508055141 4 60 0.0 0.0 0.00 0.00 0.00 92 1017.9
20260508054544 4 175 0.0 0.0 0.00 0.00 0.00 92 1017.9
20260508052737 5 166 0.0 0.0 0.00 0.00 0.00 92 1017.9
20260508052132 5 332 0.0 1.6 0.00 0.00 0.00 93 1017.9
20260508051526 5 87 1.6 3.2 0.00 0.00 0.00 93 1017.9
20260508050945 5 354 0.0 0.0 0.00 0.00 0.00 93 1017.9
20260508050309 5 336 0.0 1.6 0.00 0.00 0.00 93 1017.9
20260508045724 5 342 0.0 0.0 0.00 0.00 0.00 93 1017.6
20260508045127 5 64 0.0 0.0 0.00 0.00 0.00 93 1017.6
20260508044542 5 11 0.0 0.0 0.00 0.00 0.00 93 1017.2
20260508043936 5 87 0.0 1.6 0.00 0.00 0.00 93 1017.6
20260508043347 6 87 0.0 1.6 0.00 0.00 0.00 93 1017.6
20260508042723 5 75 0.0 0.0 0.00 0.00 0.00 93 1017.2
20260508042141 6 100 0.0 1.6 0.00 0.00 0.00 93 1017.2
20260508041532 5 358 0.0 0.0 0.00 0.00 0.00 92 1016.9
20260508040318 6 150 0.0 1.6 0.00 0.00 0.00 92 1016.9
20260508035120 6 202 0.0 0.0 0.00 0.00 0.00 90 1017.2
20260508034526 6 340 1.6 3.2 0.00 0.00 0.00 91 1017.2
20260508033916 6 344 0.0 1.6 0.00 0.00 0.00 92 1017.2
20260508033321 6 65 0.0 1.6 0.00 0.00 0.00 93 1017.2
20260508032734 6 103 0.0 0.0 0.00 0.00 0.00 92 1017.2
20260508032146 6 83 0.0 0.0 0.00 0.00 0.00 92 1016.9
20260508031526 6 117 0.0 0.0 0.00 0.00 0.00 92 1016.9
20260508030931 6 45 0.0 0.0 0.00 0.00 0.00 92 1016.9
20260508030311 6 233 0.0 0.0 0.00 0.00 0.00 91 1016.9
20260508025719 6 214 0.0 0.0 0.00 0.00 0.00 91 1016.9
20260508025114 6 200 0.0 0.0 0.00 0.00 0.00 91 1016.5
20260508024525 6 269 0.0 0.0 0.00 0.00 0.00 91 1016.5
20260508023946 6 300 0.0 0.0 0.00 0.00 0.00 91 1016.5
20260508023341 7 324 0.0 0.0 0.00 0.00 0.00 90 1016.5
20260508022723 7 239 0.0 0.0 0.00 0.00 0.00 90 1016.5
20260508021515 7 108 1.6 3.2 0.00 0.00 0.00 89 1016.2
20260508020945 7 233 0.0 0.0 0.00 0.00 0.00 89 1016.5
20260508020349 7 48 0.0 0.0 0.00 0.00 0.00 89 1016.2
20260508015738 7 99 0.0 0.0 0.00 0.00 0.00 89 1016.2
20260508015145 7 262 0.0 0.0 0.00 0.00 0.00 89 1016.2
20260508014517 7 162 0.0 0.0 0.00 0.00 0.00 89 1015.9
20260508012725 8 4 0.0 0.0 0.00 0.00 0.00 88 1015.9
20260508011528 8 93 0.0 0.0 0.00 0.00 0.00 88 1015.5
20260508010935 8 237 0.0 0.0 0.00 0.00 0.00 87 1015.5
20260508010349 8 17 0.0 0.0 0.00 0.00 0.00 87 1015.2
20260508005736 8 124 0.0 0.0 0.00 0.00 0.00 87 1015.5
20260508003908 10 306 0.0 0.0 0.00 0.00 0.00 85 1015.2
20260508003340 10 339 3.2 3.2 0.00 0.00 0.00 84 1015.2
20260508002734 10 54 0.0 0.0 0.00 0.00 0.00 83 1015.2
20260508002110 10 321 0.0 0.0 0.00 0.00 0.00 86 1014.9
20260508001532 10 51 0.0 0.0 0.00 0.00 0.00 84 1015.2
20260508000949 10 357 1.6 3.2 0.00 0.00 0.00 83 1015.2
20260508000335 10 347 0.0 0.0 0.00 0.00 0.00 83 1014.9
20260507235747 11 344 3.2 3.2 0.00 0.00 0.00 83 1015.2
20260507235119 11 315 1.6 1.6 0.00 0.00 0.00 83 1015.2
20260507234551 11 319 1.6 3.2 0.00 0.00 0.00 84 1015.2
20260507233938 11 302 0.0 0.0 0.00 0.00 0.00 83 1015.5
20260507233347 11 343 1.6 3.2 0.00 0.00 0.00 84 1015.2
20260507231535 11 321 0.0 0.0 0.00 0.00 0.00 82 1014.9
20260507225744 12 145 0.0 1.6 0.00 0.00 0.00 75 1015.2
20260507225120 12 8 1.6 3.2 0.00 0.00 0.00 73 1015.2
20260507224527 12 69 1.6 3.2 0.00 0.00 0.00 75 1015.2
20260507223918 12 155 0.0 1.6 0.00 0.00 0.00 81 1015.2
20260507223338 11 61 0.0 0.0 0.00 0.00 0.00 81 1015.2
20260507222719 11 308 1.6 3.2 0.00 0.00 0.00 80 1015.2
20260507221516 12 156 3.2 3.2 0.00 0.00 0.00 74 1014.9
20260507220312 12 200 0.0 3.2 0.00 0.00 0.00 75 1014.5
20260507215738 12 104 1.6 3.2 0.00 0.00 0.00 75 1014.5
20260507215144 12 132 0.0 1.6 0.00 0.00 0.00 72 1014.9
20260507213944 12 92 0.0 1.6 0.00 0.00 0.00 73 1014.9
20260507212737 12 11 0.0 0.0 0.00 0.00 0.00 73 1014.5
20260507211532 13 165 0.0 0.0 0.00 0.00 0.00 70 1014.5
20260507210928 12 213 3.2 6.4 0.00 0.00 0.00 69 1014.5
20260507210344 12 98 1.6 3.2 0.00 0.00 0.00 72 1014.5
20260507204547 12 257 3.2 3.2 0.00 0.00 0.00 75 1014.5
20260507202737 12 212 0.0 0.0 0.00 0.00 0.00 76 1014.5
20260507202152 12 14 0.0 1.6 0.00 0.00 0.00 71 1014.2
20260507201538 12 204 4.8 6.4 0.00 0.00 0.00 74 1014.5
20260507200938 12 258 9.7 11.3 0.00 0.00 0.00 71 1014.5
20260507195752 12 299 3.2 6.4 0.00 0.00 0.00 73 1014.5
20260507195151 12 170 0.0 1.6 0.00 0.00 0.00 76 1014.9
20260507194514 12 184 0.0 0.0 0.00 0.00 0.00 78 1014.9
20260507193951 12 158 0.0 0.0 0.00 0.00 0.00 77 1015.2
20260507192732 12 100 6.4 6.4 0.00 0.00 0.00 76 1014.5
20260507192146 12 149 0.0 1.6 0.00 0.00 0.00 77 1014.9
20260507191535 12 308 3.2 4.8 0.00 0.00 0.00 77 1014.9
20260507190936 12 289 0.0 0.0 0.00 0.00 0.00 78 1014.9
20260507185724 11 213 1.6 3.2 0.00 0.00 0.00 80 1014.9
20260507185150 12 217 1.6 3.2 0.00 0.00 0.00 78 1015.2
20260507184549 12 331 0.0 1.6 0.00 0.00 0.00 78 1015.2
20260507183951 12 262 1.6 3.2 0.00 0.00 0.00 76 1015.5
20260507183308 12 237 0.0 1.6 0.00 0.00 0.00 80 1015.5
20260507182714 12 229 0.0 1.6 0.00 0.00 0.00 76 1015.2
20260507182150 12 188 0.0 0.0 0.00 0.00 0.00 79 1015.2
20260507181510 12 307 6.4 9.7 0.00 0.00 0.00 74 1015.2
20260507180927 12 76 1.6 3.2 0.00 0.00 0.00 75 1015.2
20260507180324 12 154 1.6 3.2 0.00 0.00 0.00 75 1015.2
20260507174520 11 70 3.2 4.8 0.00 0.00 0.00 79 1015.5
20260507173945 11 146 1.6 3.2 0.00 0.00 0.00 81 1015.5
20260507172732 11 32 0.0 1.6 0.00 0.00 0.00 83 1015.5
20260507172129 10 120 4.8 6.4 0.00 0.00 0.00 81 1015.5
20260507170911 11 35 0.0 1.6 0.00 0.00 0.00 82 1015.2
20260507170321 11 30 3.2 6.4 0.00 0.00 0.00 82 1015.5
20260507165750 10 344 0.0 0.0 0.00 0.00 0.00 82 1015.5